Miscellaneous Local Product
Issued by NWS Hastings, NE

Home | Current Version | Previous Version | Graphics & Text | Print | Product List | Glossary On
Versions: 1 2 3 4 5 6 7 8 9 10 11 12 13 14 15 16 17 18 19 20 21 22 23 24 25 26 27 28 29 30 31 32 33 34 35 36 37 38 39 40 41 42 43 44 45 46 47 48 49 50
529
AXUS43 KGID 191502
MISGRI

GID CWA HOURLY WEATHER ROUNDUP
NATIONAL WEATHER SERVICE HASTINGS NE
900 AM CST SUN NOV 19 2017

NOTE: "FAIR" INDICATES FEW OR NO CLOUDS BELOW 12,000 FEET WITH NO
SIGNIFICANT WEATHER AND/OR OBSTRUCTIONS TO VISIBILITY.

...SOUTH CENTRAL NEBRASKA...

CITY           SKY/WX    TMP DP  RH WIND       PRES   REMARKS
GRAND ISLAND   SUNNY     32  24  72 W9        30.17S WCI  24
KEARNEY        SUNNY     31  22  69 W7        30.17S WCI  24
HASTINGS       SUNNY     31  23  72 W3        30.18R
ORD            SUNNY     28  24  85 CALM      30.14R
YORK           MOSUNNY   28  27  93 CALM      30.18F
AURORA         SUNNY     31  25  79 SW3       30.17F
LEXINGTON      SUNNY     29  23  79 W3        30.16F
HOLDREGE       SUNNY     32  24  71 W8        30.17S WCI  25
HEBRON         SUNNY     31  25  80 SW3       30.22S

...NEBRASKA PANHANDLE...

CITY           SKY/WX    TMP DP  RH WIND       PRES   REMARKS
CHADRON        SUNNY     28  21  75 W5        30.05F WCI  23
ALLIANCE       CLOUDY    27  22  81 SW7       30.07S WCI  19
SCOTTSBLUFF    CLOUDY    27  18  69 SE3       30.09F
SIDNEY         SUNNY     28  19  69 SW12      30.12S WCI  18

...WESTERN AND NORTH CENTRAL NEBRASKA...

CITY           SKY/WX    TMP DP  RH WIND       PRES   REMARKS
VALENTINE      SUNNY     28  21  75 SW6       30.05F WCI  22
AINSWORTH      SUNNY     31  24  75 SW12      30.07S WCI  21
ONEILL         SUNNY     30  26  86 SW7       30.10S WCI  23
BROKEN BOW     SUNNY     33  22  63 W9        30.12S WCI  25
IMPERIAL       SUNNY     29  20  69 SW9       30.16S WCI  20
NORTH PLATTE   SUNNY     28  21  75 W6        30.15S WCI  22
MCCOOK         SUNNY     29  21  72 SW7       30.18F WCI  22

...EASTERN NEBRASKA...

CITY           SKY/WX    TMP DP  RH WIND       PRES   REMARKS
NORFOLK        SUNNY     28  24  85 CALM      30.13S
SO SIOUX CITY  SUNNY     23  20  88 E5        30.16R WCI  17
TEKAMAH        SUNNY     29  23  78 S8        30.18F WCI  21
COLUMBUS       SUNNY     31  28  89 W6        30.18F WCI  25
ALBION         MOSUNNY   30  24  79 CALM      30.15S
OMAHA EPPLEY   MOSUNNY   30  23  75 SE8       30.21S WCI  22
OFFUTT AFB     SUNNY     29  23  79 S6        30.20F WCI  23
MILLARD        SUNNY     32  26  80 CALM      30.20F
LINCOLN        SUNNY     30  25  81 S5        30.22R WCI  25
NEBRASKA CITY  SUNNY     32  28  86 S5        30.22S WCI  27
BEATRICE       SUNNY     30  26  84 S3        30.22S
FALLS CITY     SUNNY     31  26  82 CALM      30.25R

...NORTHERN KANSAS...

CITY           SKY/WX    TMP DP  RH WIND       PRES   REMARKS
GOODLAND       CLOUDY    35  16  45 SW13      30.17F WCI  26
HILL CITY      SUNNY     30  22  72 W7        30.22F WCI  23
NORTON         SUNNY     30  21  69 SW7       30.19S WCI  23
PHILLIPSBURG   SUNNY     30  23  74 SW5       30.22S WCI  25
SMITH CENTER   SUNNY     27  21  80 SW5       30.23S WCI  21
HAYS           SUNNY     31  23  72 CALM      30.25F
RUSSELL        SUNNY     31  25  78 SW8       30.24S WCI  23
CONCORDIA      SUNNY     34  26  72 VRB3      30.23R
SALINA         SUNNY     34  25  69 SW7       30.28R WCI  28
TOPEKA         SUNNY     35  31  85 CALM      30.29R



USA.gov is the U.S. government's official web portal to all federal, state and local government web resources and services.